Location: Unspecified
(33.9239°N, 118.0544°W)
Time: 20:29:03
(UTC-07:00)

Resurs 1-4 Rocket - Visible Passes

Search period start: 16 September 2014 00:00
Search period end: 26 September 2014 00:00
Orbit: 800 x 814 km, 98.3° (Epoch: 15 September)

Date Brightness Start Highest point End Pass type
(mag) Time Alt. Az. Time Alt. Az. Time Alt. Az.
16 Sep 2.1 04:53:50 10° NNE 04:59:10 86° ESE 05:04:09 12° SSW visible
17 Sep 2.9 04:29:36 10° NNE 04:34:45 49° E 04:39:23 13° S visible
17 Sep 3.6 06:10:43 10° NNW 06:14:10 18° WNW 06:17:36 10° WSW visible
18 Sep 3.9 04:05:43 10° NE 04:10:14 28° E 04:14:37 11° SSE visible
18 Sep 2.9 05:45:26 10° N 05:50:00 30° WNW 05:54:32 10° SW visible
19 Sep 4.7 03:42:28 10° NE 03:45:39 16° E 03:48:50 10° SE visible
19 Sep 2.3 05:20:36 10° N 05:25:44 51° WNW 05:30:51 10° SSW visible
20 Sep 2.0 04:56:04 10° NNE 05:01:24 89° WNW 05:06:10 13° SSW visible
21 Sep 2.8 04:31:47 10° NNE 04:36:59 52° E 04:41:23 14° S visible
21 Sep 3.6 06:13:05 10° NNW 06:16:21 17° WNW 06:19:37 10° WSW visible
22 Sep 3.8 04:07:51 10° NE 04:12:29 30° E 04:16:36 12° SSE visible
22 Sep 3.0 05:47:44 10° NNW 05:52:12 28° WNW 05:56:39 10° SW visible
23 Sep 4.6 03:44:30 10° NE 03:47:54 17° E 03:51:18 10° SE visible
23 Sep 2.3 05:22:52 10° N 05:27:57 48° WNW 05:32:55 11° SW visible
24 Sep 2.0 04:58:17 10° N 05:03:37 84° WNW 05:08:08 15° SSW visible
25 Sep 2.7 04:33:59 10° NNE 04:39:13 56° E 04:43:20 16° S visible
25 Sep 3.7 06:15:28 10° NNW 06:18:33 16° WNW 06:21:37 10° W visible
